| time (UTC) | temp F | wind direction | speed MPH | gust MPH | rain 1hr in | rain 24hr in | rain mn in | humidity % | barometer mb |
| 20260502211535 | 73 | 298 | 4.0 | 10.0 | 0.01 | 0.30 | 0.16 | 52 | 1013.8 |
| 20260502210020 | 73 | 310 | 6.0 | 12.0 | 0.01 | 0.30 | 0.16 | 52 | 1013.9 |
| 20260502201521 | 71 | 316 | 5.0 | 12.0 | 0.01 | 0.29 | 0.15 | 61 | 1014.2 |
| 20260502200026 | 71 | 314 | 5.0 | 10.0 | 0.01 | 0.29 | 0.15 | 59 | 1014.4 |
| 20260502194511 | 71 | 349 | 5.0 | 10.0 | 0.01 | 0.29 | 0.15 | 58 | 1014.4 |
| 20260502184509 | 70 | 1 | 4.0 | 9.0 | 0.01 | 0.28 | 0.14 | 63 | 1014.9 |
| 20260502183034 | 70 | 304 | 3.0 | 14.0 | 0.01 | 0.28 | 0.14 | 64 | 1015.2 |
| 20260502181503 | 70 | 300 | 6.0 | 14.0 | 0.01 | 0.27 | 0.13 | 63 | 1015.1 |
| 20260502161516 | 64 | 359 | 7.0 | 17.0 | 0.01 | 0.25 | 0.11 | 77 | 1015.3 |
| 20260502151515 | 61 | 134 | 3.0 | 12.0 | 0.01 | 0.24 | 0.10 | 82 | 1014.8 |
| 20260502123023 | 54 | 350 | 1.0 | 9.0 | 0.01 | 0.21 | 0.07 | 93 | 1013.4 |
| 20260502121526 | 53 | 34 | 1.0 | 5.0 | 0.01 | 0.21 | 0.07 | 93 | 1013.1 |
| 20260502113026 | 53 | 149 | 2.0 | 6.0 | 0.01 | 0.20 | 0.06 | 93 | 1012.9 |
| 20260502111523 | 53 | 203 | 2.0 | 9.0 | 0.01 | 0.20 | 0.06 | 93 | 1013.0 |
| 20260502110010 | 53 | 104 | 2.0 | 8.0 | 0.01 | 0.20 | 0.06 | 93 | 1013.2 |
| 20260502104520 | 53 | 280 | 2.0 | 10.0 | 0.01 | 0.20 | 0.06 | 93 | 1012.8 |
| 20260502101541 | 54 | 217 | 2.0 | 6.0 | 0.01 | 0.19 | 0.05 | 93 | 1012.2 |
| 20260502091523 | 55 | 359 | 1.0 | 8.0 | 0.01 | 0.18 | 0.04 | 93 | 1011.9 |
| 20260502071520 | 55 | 262 | 1.0 | 5.0 | 0.01 | 0.16 | 0.02 | 93 | 1010.9 |
| 20260502070005 | 55 | 112 | 3.0 | 8.0 | 0.01 | 0.16 | 0.02 | 93 | 1010.9 |
| 20260502064508 | 55 | 345 | 1.0 | 5.0 | 0.01 | 0.16 | 0.02 | 93 | 1011.7 |
| 20260502063011 | 55 | 112 | 2.0 | 11.0 | 0.01 | 0.15 | 0.01 | 93 | 1011.3 |
| 20260502061516 | 55 | 58 | 1.0 | 5.0 | 0.01 | 0.15 | 0.01 | 93 | 1012.5 |
| 20260502060023 | 55 | 122 | 1.0 | 6.0 | 0.01 | 0.15 | 0.01 | 93 | 1012.5 |
| 20260502054505 | 55 | 79 | 3.0 | 7.0 | 0.02 | 0.15 | 0.01 | 93 | 1012.2 |
| 20260502053013 | 55 | 302 | 1.0 | 6.0 | 0.01 | 0.14 | 0.00 | 93 | 1012.6 |
| 20260502051517 | 55 | 212 | 1.0 | 6.0 | 0.01 | 0.14 | 0.00 | 93 | 1012.2 |
| 20260502050020 | 55 | 341 | 1.0 | 4.0 | 0.02 | 0.14 | 0.00 | 93 | 1012.4 |
| 20260502044523 | 55 | 352 | 1.0 | 2.0 | 0.01 | 0.13 | 0.13 | 93 | 1012.6 |
| 20260502043008 | 55 | 233 | 1.0 | 8.0 | 0.01 | 0.13 | 0.13 | 93 | 1012.5 |
| 20260502041513 | 55 | 115 | 2.0 | 6.0 | 0.02 | 0.13 | 0.13 | 93 | 1012.8 |
| 20260502040017 | 55 | 175 | 3.0 | 9.0 | 0.01 | 0.12 | 0.12 | 93 | 1012.7 |
| 20260502034526 | 55 | 155 | 4.0 | 9.0 | 0.01 | 0.12 | 0.12 | 93 | 1012.2 |
| 20260502033021 | 56 | 126 | 4.0 | 8.0 | 0.02 | 0.12 | 0.12 | 93 | 1013.1 |
| 20260502031512 | 56 | 205 | 2.0 | 5.0 | 0.01 | 0.11 | 0.11 | 93 | 1014.4 |
| 20260502030014 | 56 | 322 | 2.0 | 9.0 | 0.02 | 0.11 | 0.11 | 93 | 1014.2 |
| 20260502024519 | 56 | 158 | 2.0 | 5.0 | 0.02 | 0.11 | 0.11 | 93 | 1013.7 |
| 20260502023024 | 56 | 129 | 2.0 | 5.0 | 0.01 | 0.10 | 0.10 | 93 | 1014.0 |
| 20260502021525 | 57 | 96 | 0.0 | 2.0 | 0.02 | 0.10 | 0.10 | 93 | 1013.7 |
| 20260502020014 | 57 | 304 | 3.0 | 7.0 | 0.01 | 0.09 | 0.09 | 92 | 1013.9 |
| 20260502014519 | 58 | 195 | 1.0 | 7.0 | 0.02 | 0.09 | 0.09 | 92 | 1012.7 |
| 20260502013021 | 58 | 115 | 2.0 | 8.0 | 0.02 | 0.09 | 0.09 | 93 | 1012.6 |
| 20260502011526 | 58 | 359 | 2.0 | 7.0 | 0.02 | 0.08 | 0.08 | 93 | 1011.7 |
| 20260502010026 | 58 | 336 | 2.0 | 4.0 | 0.02 | 0.08 | 0.08 | 92 | 1012.3 |
| 20260502004518 | 58 | 335 | 2.0 | 7.0 | 0.02 | 0.07 | 0.07 | 92 | 1012.6 |
| 20260502003020 | 58 | 315 | 1.0 | 6.0 | 0.03 | 0.07 | 0.07 | 92 | 1012.0 |
| 20260502001524 | 58 | 322 | 3.0 | 8.0 | 0.02 | 0.06 | 0.06 | 92 | 1011.9 |
| 20260502000011 | 58 | 188 | 2.0 | 8.0 | 0.03 | 0.06 | 0.06 | 91 | 1012.1 |
| 20260501234514 | 59 | 333 | 2.0 | 7.0 | 0.03 | 0.05 | 0.05 | 92 | 1012.1 |
| 20260501233022 | 60 | 332 | 2.0 | 10.0 | 0.02 | 0.04 | 0.04 | 92 | 1011.9 |
| 20260501231502 | 61 | 105 | 3.0 | 13.0 | 0.03 | 0.04 | 0.04 | 92 | 1011.1 |
| 20260501230008 | 62 | 295 | 4.0 | 11.0 | 0.03 | 0.03 | 0.03 | 92 | 1011.2 |
| 20260501224511 | 62 | 261 | 2.0 | 6.0 | 0.02 | 0.02 | 0.02 | 92 | 1010.8 |
| 20260501223014 | 63 | 276 | 2.0 | 4.0 | 0.02 | 0.02 | 0.02 | 91 | 1010.7 |
| 20260501221520 | 63 | 42 | 2.0 | 6.0 | 0.01 | 0.01 | 0.01 | 90 | 1011.0 |
| 20260501220008 | 64 | 138 | 2.0 | 6.0 | 0.00 | 0.00 | 0.00 | 89 | 1011.1 |
| 20260501214508 | 65 | 187 | 1.0 | 6.0 | 0.00 | 0.00 | 0.00 | 88 | 1011.3 |
| 20260501213015 | 65 | 105 | 3.0 | 7.0 | 0.00 | 0.00 | 0.00 | 87 | 1011.2 |